EW1423 Weather Reports


Display with metric or nautical units.
time (UTC)temp
F
wind
direction
speed
MPH
gust
MPH
rain 1hr
in
rain 24hr
in
rain mn
in
humidity
%
barometer
mb
20260503053804 52 146 1.0 2.0 0.00 0.00 0.00 82 1016.0
20260503053304 51 148 0.0 2.0 0.00 0.00 0.00 84 1016.0
20260503052803 51 181 0.0 1.0 0.00 0.00 0.00 85 1016.0
20260503052305 50 181 0.0 3.0 0.00 0.00 0.00 85 1016.0
20260503051804 50 127 1.0 5.0 0.00 0.00 0.00 86 1016.0
20260503050804 49 163 1.0 5.0 0.00 0.00 0.00 89 1016.0
20260503045811 48 152 1.0 5.0 0.00 0.00 0.00 90 1016.0
20260503045305 48 155 0.0 3.0 0.00 0.00 0.00 91 1016.0
20260503044804 48 125 1.0 2.0 0.00 0.00 0.00 91 1016.0
20260503044304 47 125 0.0 2.0 0.00 0.00 0.00 92 1016.0
20260503043803 47 126 0.0 1.0 0.00 0.00 0.00 92 1016.0
20260503042804 47 126 0.0 0.0 0.00 0.00 0.00 93 1016.0
20260503042305 47 126 0.0 1.0 0.00 0.00 0.00 93 1016.0
20260503041804 46 126 0.0 0.0 0.00 0.00 0.00 94 1016.0
20260503041303 46 126 0.0 0.0 0.00 0.00 0.00 94 1016.0
20260503040803 46 126 0.0 0.0 0.00 0.00 0.00 94 1016.0
20260503035803 46 126 0.0 0.0 0.00 0.00 0.00 93 1016.0
20260503034304 46 126 0.0 0.0 0.00 0.00 0.00 93 1016.0
20260503033304 47 126 0.0 0.0 0.00 0.00 0.00 92 1016.0
20260503032803 47 126 0.0 1.0 0.00 0.00 0.00 93 1016.2
20260503032305 47 126 0.0 0.0 0.00 0.00 0.00 92 1016.2
20260503031304 47 126 0.0 0.0 0.00 0.00 0.00 90 1015.9
20260503030803 48 126 0.0 0.0 0.00 0.00 0.00 90 1015.9
20260503030304 48 126 0.0 0.0 0.00 0.00 0.00 89 1015.9
20260503025319 49 126 0.0 0.0 0.00 0.00 0.00 88 1015.9
20260503024804 49 126 0.0 0.0 0.00 0.00 0.00 88 1015.9
20260503024303 49 126 0.0 1.0 0.00 0.00 0.00 87 1015.9
20260503023303 49 74 0.0 2.0 0.00 0.00 0.00 87 1016.1
20260503022803 49 74 1.0 2.0 0.00 0.00 0.00 88 1016.1
20260503022305 49 74 0.0 3.0 0.00 0.00 0.00 88 1016.1
20260503021803 49 109 0.0 5.0 0.00 0.00 0.00 88 1016.1
20260503021304 49 143 0.0 1.0 0.00 0.00 0.00 89 1016.1
20260503020803 49 143 0.0 2.0 0.00 0.00 0.00 88 1016.1
20260503020304 49 143 0.0 1.0 0.00 0.00 0.00 88 1016.1
20260503015305 49 137 1.0 2.0 0.00 0.00 0.00 87 1016.1
20260503014803 49 137 0.0 1.0 0.00 0.00 0.00 87 1016.1
20260503014303 49 137 1.0 2.0 0.00 0.00 0.00 87 1016.0
20260503013804 49 151 0.0 1.0 0.00 0.00 0.00 87 1016.0
20260503013303 49 153 0.0 1.0 0.00 0.00 0.00 87 1016.0
20260503012803 49 153 0.0 0.0 0.00 0.00 0.00 87 1016.0
20260503012305 49 153 0.0 1.0 0.00 0.00 0.00 87 1016.0
20260503011804 49 153 0.0 0.0 0.00 0.00 0.00 88 1016.0
20260503011304 49 153 0.0 0.0 0.00 0.00 0.00 87 1016.0
20260503010803 49 153 0.0 1.0 0.00 0.00 0.00 87 1016.0
20260503010303 50 153 0.0 0.0 0.00 0.00 0.00 86 1016.0
20260503005804 50 153 0.0 0.0 0.00 0.00 0.00 86 1015.9
20260503004804 50 153 0.0 1.0 0.00 0.00 0.00 86 1016.3
20260503004304 49 153 0.0 1.0 0.00 0.00 0.00 87 1016.3
20260503003803 49 153 0.0 1.0 0.00 0.00 0.00 87 1016.3
20260503003304 49 153 0.0 1.0 0.00 0.00 0.00 87 1016.3
20260503002804 49 153 0.0 1.0 0.00 0.00 0.00 87 1016.3
20260503002305 49 153 0.0 1.0 0.00 0.00 0.00 86 1016.3
20260503001804 49 153 0.0 1.0 0.00 0.00 0.00 86 1016.3
20260503000804 49 153 0.0 0.0 0.00 0.00 0.00 86 1016.3
20260503000304 49 153 0.0 0.0 0.00 0.00 0.00 86 1016.3
20260502235803 49 153 0.0 0.0 0.00 0.00 0.00 86 1016.3
20260502235305 49 153 0.0 0.0 0.00 0.00 0.00 86 1016.3
20260502234803 49 153 0.0 0.0 0.00 0.00 0.00 86 1016.3
20260502233303 50 153 0.0 0.0 0.00 0.00 0.00 84 1016.4
20260502232803 50 153 0.0 0.0 0.00 0.00 0.00 84 1016.4
20260502232305 50 153 0.0 0.0 0.00 0.00 0.00 84 1016.4
20260502231804 50 153 0.0 0.0 0.00 0.00 0.00 83 1016.4
20260502230303 51 153 0.0 0.0 0.00 0.00 0.00 82 1016.4
20260502225803 51 153 0.0 0.0 0.00 0.00 0.00 82 1016.4
20260502224819 51 153 0.0 1.0 0.00 0.00 0.00 82 1016.4
20260502224303 51 153 0.0 0.0 0.00 0.00 0.00 82 1016.4
20260502223804 51 153 0.0 0.0 0.00 0.00 0.00 81 1016.4
20260502223303 51 153 0.0 0.0 0.00 0.00 0.00 80 1016.3
20260502222305 52 153 0.0 0.0 0.00 0.00 0.00 80 1016.3
20260502221804 52 153 0.0 0.0 0.00 0.00 0.00 79 1016.3
20260502220810 52 153 0.0 0.0 0.00 0.00 0.00 79 1016.4
20260502220304 52 153 0.0 0.0 0.00 0.00 0.00 79 1016.4
20260502215804 52 153 0.0 0.0 0.00 0.00 0.00 79 1016.4
20260502214804 52 153 0.0 0.0 0.00 0.00 0.00 78 1016.4
20260502214304 52 153 0.0 0.0 0.00 0.00 0.00 78 1016.5
20260502213804 52 153 0.0 0.0 0.00 0.00 0.00 78 1016.5
20260502213304 53 153 0.0 0.0 0.00 0.00 0.00 77 1016.5
20260502212305 53 153 0.0 0.0 0.00 0.00 0.00 77 1016.5
20260502211804 53 153 0.0 0.0 0.00 0.00 0.00 76 1016.5
20260502211304 53 153 0.0 0.0 0.00 0.00 0.00 76 1016.5
20260502210803 54 153 0.0 0.0 0.00 0.00 0.00 75 1016.4
20260502210304 54 153 0.0 0.0 0.00 0.00 0.00 74 1016.7
20260502205804 54 153 0.0 0.0 0.00 0.00 0.00 74 1016.7
20260502205305 54 153 0.0 0.0 0.00 0.00 0.00 74 1016.7
20260502204804 54 153 0.0 0.0 0.00 0.00 0.00 74 1016.7
20260502204303 55 153 0.0 0.0 0.00 0.00 0.00 74 1016.7
20260502203803 55 153 0.0 0.0 0.00 0.00 0.00 72 1016.7
20260502203304 55 153 0.0 0.0 0.00 0.00 0.00 72 1016.7
20260502202819 55 153 0.0 0.0 0.00 0.00 0.00 72 1016.7
20260502202305 56 153 0.0 0.0 0.00 0.00 0.00 72 1016.7
20260502201304 56 153 0.0 0.0 0.00 0.00 0.00 71 1016.6
20260502200803 56 153 0.0 0.0 0.00 0.00 0.00 71 1016.6
20260502194304 58 153 0.0 0.0 0.00 0.00 0.00 65 1016.6
20260502193804 59 153 0.0 1.0 0.00 0.00 0.00 64 1016.6
20260502193303 59 153 0.0 0.0 0.00 0.00 0.00 64 1016.3
20260502192803 59 153 0.0 0.0 0.00 0.00 0.00 62 1016.3
20260502192305 60 153 0.0 0.0 0.00 0.00 0.00 63 1016.3
20260502191803 60 153 0.0 0.0 0.00 0.00 0.00 63 1016.3
20260502191303 60 153 0.0 0.0 0.00 0.00 0.00 64 1016.3
20260502190804 61 153 0.0 0.0 0.00 0.00 0.00 63 1016.3
20260502190304 61 153 0.0 0.0 0.00 0.00 0.00 62 1016.3
20260502185804 62 153 0.0 0.0 0.00 0.00 0.00 63 1016.1
20260502185305 63 153 0.0 0.0 0.00 0.00 0.00 59 1016.1
20260502184804 63 153 0.0 0.0 0.00 0.00 0.00 59 1016.1
20260502183303 66 153 0.0 0.0 0.00 0.00 0.00 55 1016.1
20260502182803 67 153 0.0 0.0 0.00 0.00 0.00 53 1016.1
20260502182305 67 153 0.0 1.0 0.00 0.00 0.00 54 1016.1
20260502181803 68 153 0.0 1.0 0.00 0.00 0.00 51 1016.1
20260502181304 69 153 0.0 0.0 0.00 0.00 0.00 50 1015.9
20260502180303 71 153 0.0 1.0 0.00 0.00 0.00 47 1016.2
20260502170303 80 186 0.0 2.0 0.00 0.00 0.00 28 1016.3
20260502163804 81 99 2.0 3.0 0.00 0.00 0.00 24 1016.5
20260502163304 82 173 0.0 2.0 0.00 0.00 0.00 23 1016.5
20260502162804 83 159 0.0 5.0 0.00 0.00 0.00 23 1016.5
20260502162304 84 116 0.0 5.0 0.00 0.00 0.00 23 1016.6
20260502161804 83 101 0.0 2.0 0.00 0.00 0.00 21 1017.0
20260502161304 83 101 1.0 2.0 0.00 0.00 0.00 22 1017.0
20260502160803 84 97 1.0 3.0 0.00 0.00 0.00 23 1017.0
20260502160304 84 137 1.0 2.0 0.00 0.00 0.00 21 1017.0
20260502152305 84 135 1.0 3.0 0.00 0.00 0.00 22 1017.8
20260502151803 85 13 1.0 2.0 0.00 0.00 0.00 23 1017.8
20260502150803 83 46 1.0 6.0 0.00 0.00 0.00 21 1017.8
20260502150304 84 147 1.0 5.0 0.00 0.00 0.00 24 1017.8
20260502130303 81 104 1.0 5.0 0.00 0.00 0.00 31 1019.5
20260502123303 79 107 2.0 5.0 0.00 0.00 0.00 31 1019.7
20260502122306 80 164 2.0 3.0 0.00 0.00 0.00 32 1019.8
20260502121803 79 286 1.0 3.0 0.00 0.00 0.00 36 1019.8
20260502121304 79 181 1.0 5.0 0.00 0.00 0.00 34 1020.2
20260502120804 80 165 2.0 5.0 0.00 0.00 0.00 33 1020.2
20260502120303 80 331 2.0 5.0 0.00 0.00 0.00 34 1020.2
20260502115803 80 264 1.0 6.0 0.00 0.00 0.00 34 1020.2
20260502115306 80 288 1.0 5.0 0.00 0.00 0.00 37 1020.2
20260502114803 80 234 1.0 6.0 0.00 0.00 0.00 36 1020.3
20260502114303 80 250 1.0 3.0 0.00 0.00 0.00 35 1021.3
20260502113804 80 123 1.0 2.0 0.00 0.00 0.00 35 1021.3
20260502113303 79 98 1.0 3.0 0.00 0.00 0.00 37 1021.3
20260502112803 79 345 1.0 3.0 0.00 0.00 0.00 38 1021.3
20260502112306 79 270 2.0 6.0 0.00 0.00 0.00 35 1021.3
20260502111804 79 287 1.0 5.0 0.00 0.00 0.00 36 1021.3
20260502111303 79 294 2.0 6.0 0.00 0.00 0.00 41 1021.3
20260502110304 79 298 1.0 3.0 0.00 0.00 0.00 38 1021.3
20260502105804 78 295 2.0 6.0 0.00 0.00 0.00 38 1021.3
20260502104804 77 146 1.0 7.0 0.00 0.00 0.00 40 1021.3
20260502104303 77 164 1.0 5.0 0.00 0.00 0.00 40 1021.3
20260502103803 77 337 2.0 6.0 0.00 0.00 0.00 40 1021.3
20260502103304 78 318 1.0 2.0 0.00 0.00 0.00 40 1021.5
20260502102804 77 318 0.0 5.0 0.00 0.00 0.00 38 1021.5
20260502102306 77 243 0.0 3.0 0.00 0.00 0.00 36 1021.7
20260502101803 77 271 1.0 7.0 0.00 0.00 0.00 40 1021.7
20260502101303 77 275 1.0 3.0 0.00 0.00 0.00 39 1021.7
20260502100803 77 61 0.0 2.0 0.00 0.00 0.00 38 1021.9
20260502100303 75 61 1.0 2.0 0.00 0.00 0.00 40 1021.9
20260502091303 71 83 1.0 3.0 0.00 0.00 0.00 45 1022.4
20260502090804 70 87 1.0 5.0 0.00 0.00 0.00 48 1022.4
20260502071304 60 137 1.0 3.0 0.00 0.00 0.00 59 1022.9
20260502070804 60 85 1.0 3.0 0.00 0.00 0.00 63 1022.9
20260502070303 59 97 1.0 2.0 0.00 0.00 0.00 62 1022.9
20260502065306 57 67 2.0 5.0 0.00 0.00 0.00 64 1023.0
20260502064803 57 77 1.0 3.0 0.00 0.00 0.00 65 1023.0
20260502064303 56 97 1.0 3.0 0.00 0.00 0.00 66 1023.1
20260502063303 55 88 1.0 3.0 0.00 0.00 0.00 69 1023.1
20260502062804 54 146 2.0 3.0 0.00 0.00 0.00 69 1023.1
20260502062306 53 138 1.0 3.0 0.00 0.00 0.00 72 1023.1
20260502061803 53 98 1.0 3.0 0.00 0.00 0.00 73 1023.1
20260502061304 52 138 1.0 2.0 0.00 0.00 0.00 74 1023.1
20260502060803 51 134 2.0 5.0 0.00 0.00 0.00 75 1023.2
20260502060303 50 136 0.0 2.0 0.00 0.00 0.00 77 1023.2
20260502054804 47 145 1.0 3.0 0.00 0.00 0.00 83 1023.2
20260502054303 47 114 1.0 3.0 0.00 0.00 0.00 84 1023.2